Location: 22
(39.7117°N, 89.5929°W)
Time: 08:42:24
(UTC-05:00)

S-56A Canister/Altair - Pass Details

Date: 13 February 2023
Orbit: 638 x 2493 km, 38.9° (Epoch: 25 March)

Event Time Altitude Azimuth Distance (km) Brightness Sun altitude
Rises 10:17:17 0° 272° (W) 3,053 10.3 30.6°
Reaches altitude 10° 10:19:42 10° 271° (W) 2,058 9.5 30.9°
Maximum altitude 10:24:12 80° 185° (S) 652 7.9 31.3°
Drops below altitude 10° 10:28:56 10° 99° (E) 2,154 10.5 31.8°
Sets 10:31:30 0° 98° (E) 3,209 11.2 32.0°
